This is the latest recevied weather packets stored in our database for station/object LU3HGB-WX. If no packets are shown the sender has not sent any weather packets the latest 10 day(s).
| Time | Temp. | Humidity | Pressure | Rain* | Wind** | Luminosity | Snow |
|---|---|---|---|---|---|---|---|
| 1788244960 | 1.11° C | 96% | 1021 hPa | 0 mm | - | 0 W/m² | - |
| 1788244659 | 1.11° C | 96% | 1021 hPa | 0 mm | - | 0 W/m² | - |
| 1788244360 | 1.11° C | 96% | 1021 hPa | 0 mm | - | 0 W/m² | - |
| 1788244062 | 1.67° C | 96% | 1021 hPa | 0 mm | - | 0 W/m² | - |
| 1788243760 | 1.11° C | 96% | 1021 hPa | 0 mm | - | 0 W/m² | - |
| 1788243462 | 1.11° C | 95% | 1021 hPa | 0 mm | - | 0 W/m² | - |
| 1788243160 | 1.11° C | 96% | 1022 hPa | 0 mm | - | 0 W/m² | - |
| 1788242859 | 1.11° C | 95% | 1022 hPa | 0 mm | - | 0 W/m² | - |
| 1788242560 | 1.67° C | 94% | 1022 hPa | 0 mm | - | 0 W/m² | - |
| 1788242259 | 1.67° C | 94% | 1022 hPa | 0 mm | - | 0 W/m² | - |
| 1788241959 | 2.22° C | 91% | 1021 hPa | 0 mm | - | 0 W/m² | - |
| 1788241660 | 2.22° C | 94% | 1021 hPa | 0 mm | - | 0 W/m² | - |
| 1788241359 | 2.22° C | 96% | 1021 hPa | 0 mm | - | 0 W/m² | - |
| 1788241061 | 2.22° C | 94% | 1021 hPa | 0 mm | - | 0 W/m² | - |
| 1788240759 | 2.22° C | 91% | 1021 hPa | 0 mm | - | 0 W/m² | - |
| 1788240459 | 2.78° C | 95% | 1021 hPa | 0 mm | - | 0 W/m² | - |
| 1788240160 | 2.22° C | 94% | 1021 hPa | 0 mm | - | 0 W/m² | - |
| 1788239859 | 2.22° C | 95% | 1021 hPa | 0 mm | - | 0 W/m² | - |
| 1788239580 | 2.22° C | 94% | 1021 hPa | 0 mm | - | 0 W/m² | - |
| 1788239260 | 2.78° C | 93% | 1021 hPa | 0 mm | - | 0 W/m² | - |
| 1788238960 | 2.78° C | 94% | 1021 hPa | 0 mm | - | 0 W/m² | - |
| 1788238668 | 2.78° C | 92% | 1021 hPa | 0 mm | - | 0 W/m² | - |
| 1788238359 | 2.78° C | 93% | 1021 hPa | 0 mm | - | 0 W/m² | - |
| 1788238059 | 2.78° C | 92% | 1021 hPa | 0 mm | - | 0 W/m² | - |
| 1788237760 | 2.78° C | 95% | 1021 hPa | 0 mm | - | 0 W/m² | - |
* Rain latest hour (hover to see other rain measurements)
** Current wind speed in m/s (hover to see current wind gust speed)